This is the latest recevied weather packets stored in our database for station/object DJ3OW-13. If no packets are shown the sender has not sent any weather packets the latest 10 day(s).
| Time | Temp. | Humidity | Pressure | Rain* | Wind** | Luminosity | Snow |
|---|---|---|---|---|---|---|---|
| 1777869072 | 11.67° C | 81% | 1014.8 hPa | 0 mm | - | - | - |
| 1777863032 | 12.78° C | 76% | 1014.8 hPa | 0 mm | - | - | - |
| 1777862429 | 12.22° C | 77% | 1014.7 hPa | 0 mm | - | - | - |
| 1777859419 | 13.33° C | 73% | 1014.7 hPa | 0 mm | - | - | - |
| 1777857071 | 14.44° C | 69% | 1014.6 hPa | 0 mm | - | - | - |
| 1777855887 | 15° C | 68% | 1014.9 hPa | 0 mm | - | - | - |
| 1777855266 | 14.44° C | 69% | 1014.8 hPa | 0 mm | - | - | - |
| 1777853459 | 15.56° C | 66% | 1014.6 hPa | 0 mm | - | - | - |
| 1777848663 | 16.67° C | 62% | 1014.8 hPa | 0 mm | - | - | - |
| 1777841419 | 18.33° C | 55% | 1015 hPa | 0 mm | - | - | - |
| 1777839071 | 18.89° C | 51% | 1015 hPa | 0 mm | - | - | - |
| 1777834255 | 19.44° C | 46% | 1013.9 hPa | 0 mm | - | - | - |
| 1777829439 | 21.11° C | 38% | 1013.6 hPa | 0 mm | - | - | - |
| 1777828837 | 21.67° C | 37% | 1013.6 hPa | 0 mm | - | - | - |
| 1777823468 | 21.67° C | 46% | 1013.9 hPa | 0 mm | - | - | - |
| 1777822244 | 22.22° C | 45% | 1013.9 hPa | 0 mm | - | - | - |
| 1777821040 | 22.22° C | 42% | 1014 hPa | 0 mm | - | - | - |
| 1777816224 | 21.67° C | 43% | 1014.7 hPa | 0 mm | - | - | - |
| 1777815020 | 21.11° C | 47% | 1014.8 hPa | 0 mm | - | - | - |
| 1777813816 | 21.11° C | 49% | 1014.9 hPa | 0 mm | - | - | - |
| 1777812672 | 20.56° C | 51% | 1015.2 hPa | 0 mm | - | - | - |
| 1777812070 | 19.44° C | 52% | 1015.2 hPa | 0 mm | - | - | - |
| 1777811468 | 19.44° C | 55% | 1015.3 hPa | 0 mm | - | - | - |
| 1777807876 | 20° C | 46% | 1015.5 hPa | 0 mm | - | - | - |
| 1777797019 | 20° C | 52% | 1016.1 hPa | 0 mm | - | - | - |
* Rain latest hour (hover to see other rain measurements)
** Current wind speed in m/s (hover to see current wind gust speed)